Location: St. Louis
(38.6270°N, 90.1994°W)
Time: 22:16:19
(UTC-06:00)

ITUPSAT 1 - Visible Passes

Search period start: 24 January 2022 00:00
Search period end: 03 February 2022 00:00
Orbit: 700 x 713 km, 98.6° (Epoch: 24 January)

Date Brightness Start Highest point End Pass type
(mag) Time Alt. Az. Time Alt. Az. Time Alt. Az.
24 Jan ? 06:14:52 10° SE 06:18:52 27° ENE 06:22:52 10° N visible
26 Jan ? 06:05:36 10° ESE 06:09:13 22° ENE 06:12:50 10° NNE visible
28 Jan ? 05:56:28 10° ESE 05:59:35 18° ENE 06:02:42 10° NNE visible
29 Jan ? 06:38:43 10° SE 06:43:15 46° ENE 06:47:48 10° N visible
30 Jan ? 05:47:31 10° E 05:49:58 14° ENE 05:52:24 10° NNE visible
31 Jan ? 06:29:14 10° SE 06:33:34 36° ENE 06:37:56 10° N visible
01 Feb ? 05:39:02 10° ENE 05:40:21 11° ENE 05:41:42 10° NE visible
02 Feb ? 06:19:49 10° SE 06:23:53 29° ENE 06:27:58 10° N visible
